Regional Weather Roundup
Issued by NWS Jackson, KY

Home | Current Version | Previous Version | Graphics & Text | Print | Product List | Glossary On
Versions: 1 2 3 4 5 6 7 8 9 10 11 12 13 14 15 16 17 18 19 20 21 22 23 24 25 26 27 28 29 30 31 32 33 34 35 36 37 38 39 40 41 42 43 44 45 46 47 48 49 50
000
ASUS43 KJKL 230810
RWRJKL

EAST KENTUCKY HOURLY WEATHER ROUNDUP
NATIONAL WEATHER SERVICE JACKSON KY
400 AM EDT FRI JUN 23 2017

NOTE: "FAIR" INDICATES FEW OR NO CLOUDS BELOW 12,000 FEET WITH
NO SIGNIFICANT WEATHER AND/OR OBSTRUCTIONS TO VISIBILITY.

* THESE REPORTS ARE NOT UNDER NWS QUALITY CONTROL AND MAY NOT
  REPORT WEATHER SUCH AS PRECIPITATION AND FOG.

KYZ079-080-083-085-087-088-110-112-115-119-120-230900
...EASTERN KENTUCKY...

CITY           SKY/WX    TMP DP  RH WIND       PRES   REMARKS
JACKSON        CLOUDY    71  68  90 CALM      29.91F
LONDON         CLOUDY    73  69  87 S6        29.91F
SOMERSET*      PTCLDY    72  72 100 S6        29.90F
MONTICELLO*    CLOUDY    76  71  85 VRB7      29.90F
WILLIAMSBURG*  CLOUDY    72  72 100 SE7       29.92F
MIDDLESBORO*   HVY RAIN  72  71  96 S8        29.95F
HARLAN APT*    CLOUDY    70  68  94 CALM      29.96F
PIKE CO APT*   CLOUDY    71  71 100 SE5       29.92F
BIG SANDY APT* MOSUNNY   72  69  92 S7        29.90F
MOREHEAD APT*  MOSUNNY   72  68  88 S10       29.88F FOG
$$

KYZ035-036-041-042-044-050-067-078-099-230900
...CENTRAL KENTUCKY...

CITY           SKY/WX    TMP DP  RH WIND       PRES   REMARKS
MT STERLING*   CLOUDY    72  70  94 SW6       29.88F
FLEMING/MASON* CLOUDY    70  69  98 S3        29.86F
DANVILLE*      CLOUDY    72  70  94 SW8       29.87F
LEXINGTON      MOCLDY    74  70  87 S12       29.84F
FRANKFORT      CLOUDY    75  70  84 S12       29.81F
LOUISVILLE     LGT RAIN  77  73  87 S10       29.80F
LEBANON*       PTSUNNY   73  72  94 S12G20    29.84F
GLASGOW*       CLOUDY    75  74  96 S10       29.84F
BOWLING GREEN  CLOUDY    77  74  90 S13       29.82F
$$

KYZ091>093-OHZ055-061-077-WVZ005-015-034-035-042-230900
...SOUTHERN OHIO/WEST VIRGINIA...

CITY           SKY/WX    TMP DP  RH WIND       PRES   REMARKS
COVINGTON      CLOUDY    73  72  96 S12G18    29.79F
COLUMBUS       CLOUDY    71  71 100 S8        29.78F
DAYTON         LGT RAIN  71  70  96 SW12      29.79F FOG
WILMINGTON     CLOUDY    71  71 100 SW14G23   29.80F
HUNTINGTON     CLOUDY    70  68  93 SW6       29.86F
CHARLESTON     CLOUDY    71  67  87 S6        29.88F
PINEVILLE*     CLOUDY    68  67  96 MISG      30.02F
BECKLEY        CLOUDY    68  64  87 S9        30.00F
BLUEFIELD      CLOUDY    68  63  84 SW8       30.04F
LOGAN CO APT*  CLOUDY    70  68  94 CALM      29.93F
$$

VAZ002-007-008-TNZ017-027-036-066-071-230900
...SOUTHWEST VIRGINIA/EAST TENNESSEE...

CITY           SKY/WX    TMP DP  RH WIND       PRES   REMARKS
WISE*          CLOUDY    70  70 100 S7G17     30.02F
JONESVILLE*    LGT RAIN  70  70 100 CALM      29.99
ABINGDON*      CLOUDY    70  70 100 CALM      30.01F
BRISTOL        CLOUDY    70  69  97 CALM      29.98F
MORRISTOWN*    CLOUDY    72  72 100 CALM      29.95F
SEVIERVILLE*   PTSUNNY   70  70 100 CALM      29.94F
KNOXVILLE      CLOUDY    73  69  87 SW12      29.94F
LAFOLLETTE*      N/A     73  72  94 VRB5      29.97F FOG
OAK RIDGE      LGT RAIN  73  71  93 CALM      29.95F
CROSSVILLE     RAIN      71  69  93 VRB7G18   29.96F FOG
NASHVILLE      CLOUDY    78  72  81 S12       29.85F
$$

...KEY TO REMARKS...
VSB - VISIBILITY IN MILES
WCI - WIND CHILL INDEX
HX  - HEAT INDEX

$$



USA.gov is the U.S. government's official web portal to all federal, state and local government web resources and services.